Tracking 29528 objects as of 14-Sep-2024
HD Live streaming from Space Station
objects crossing your sky now

MDASAT-1B

Track MDASAT-1B now!
10-day predictions


NORAD ID: 51050
Int'l Code: 2022-002BU
Perigee: 440.3 km
Apogee: 446.9 km
Inclination: 97.4 °
Period: 93.3 minutes
Semi major axis: 6814 km
RCS: Unknown
Launch date: January 13, 2022
Source: South Africa (SAFR)
Launch site: AIR FORCE EASTERN TEST RANGE (AFETR)
Your satellite tracking list
Your tracking list is empty




NASA's NSSDC Master Catalog

Two Line Element Set (TLE):
1 51050U 22002BU  24257.65200096  .00096448  00000-0  21459-2 0  9999
2 51050  97.3824 326.4403 0004798  96.8337 263.3457 15.43272717148071
Source of the keplerian elements: AFSPC